Location: Bemmer
(51.5498°N, 5.6249°E)
Time: 12:43:07
(UTC+00:00)

SJ-6B - Pass Details

Date: 03 March 2021
Orbit: 509 x 581 km, 97.6° (Epoch: 17 April)

Event Time Altitude Azimuth Distance (km) Brightness Sun altitude
Exits shadow 19:22:51 21° 170° (S) 1,317 4.5 -19.5°
Maximum altitude 19:25:33 80° 256° (WSW) 588 2.9 -19.9°
Drops below altitude 10° 19:29:37 10° 344° (NNW) 1,873 5.9 -20.5°
Sets 19:31:45 0° 346° (NNW) 2,763 6.8 -20.8°
